星链-31823 (STARLINK-31823 )

导读 | 豆包AI

STARLINK-31823是美国于北京时间2024年5月18日发射的星链卫星,隶属于太空探索技术公司SpaceX打造的星链星座。星链项目旨在构建全球卫星互联网星座,通过大量低轨卫星组网,为全球各地提供高速宽带互联网接入服务,该卫星入轨后将参与星座组网,进一步扩充星链的服务覆盖能力与网络容量。

Basic Information
目录编号:
59794
目录名称:
STARLINK-31823
国际标识:
2024-093N
轨道中心:
EARTH
卫星名称:
星链-31823
卫星全名:
星链-31823 (STARLINK-31823 )
卫星状态:
在轨 (已飞行666 天)
发射日期:
2024-05-18 UTC
国别 :
美国 (US)
星等 :
--
Orbit Information
数据来源 国际轨道数据 AOE轨道数据
星历时间 2026-03-15T01:01:26+0800
1天前
查看轨道信息
2026-03-11T09:00:00+0800
4天前
查看轨道信息
半长轴 6861.152km 6861.184km
偏心率 0.0000518 0.0001052
轨道倾角 42.999° 42.999°
近地点辐角 5.083° 290.292°
升交点赤经 180.496° 201.218°
平近点角 355.003° 36.627°
近地点 482.659km 482.325km
远地点 483.371km 483.769km
周期 94.266分钟 94.267分钟
每日圈数 15.275915 15.275807
Detailed Information
固有亮度:
5
最大亮度:
1.5
卫星平台:
Starlink v2.0 mini
覆盖范围:
全球
运营商:
太空探索技术公司
运营商所在国:
美国
制造商(研发单位):
太空探索技术公司
制造商所在国:
美国
使用方式:
暂无
Satellite Introduction
星链(Starlink)计划是由太空探索技术公司(SpaceX)提出的一个巨型低轨卫星互联网星座项目,计划在2019年至2024年间在太空搭建由约1.2万颗卫星组成的“星链”网络,其中1584颗将部署在地球上空550千米处的近地轨道,并从2020年开始工作。该卫星仍在工作。
2D Orbit Map
3D Orbit Map
Orbit Altitude Analysis Chart
Orbit Inclination Analysis Chart
Orbit Comprehensive Analysis Chart
View Comprehensive Chart